Regional Weather Roundup
Issued by NWS

Home | Current Version | Previous Version | Text Only | Print | Product List | Glossary Off
Versions: 1 2 3 4 5 6 7 8 9 10 11 12 13 14 15 16 17 18 19 20 21 22 23 24 25 26 27 28 29 30 31 32 33 34 35 36 37 38 39 40 41 42 43 44 45 46 47 48 49 50

000
ASUS43 KFSD 180410
RWRSD

WEATHER ROUNDUP FOR SOUTH DAKOTA
NATIONAL WEATHER SERVICE SIOUX FALLS SD
1100 PM CDT WED SEP 17 2014

NOTE: "FAIR" INDICATES FEW OR NO CLOUDS BELOW 12,000 FEET WITH NO
SIGNIFICANT WEATHER AND/OR OBSTRUCTIONS TO VISIBILITY.


SDZ001>005-009-010-012>017-180500-
NORTHWEST AND NORTH CENTRAL SOUTH DAKOTA

CITY           SKY/WX    TMP DP  RH WIND       PRES   REMARKS
BUFFALO          N/A     59  51  75 SE7       29.90R
FAITH            N/A     59  46  62 SE13      29.96R
MOBRIDGE       CLEAR     58  48  69 E13       29.95S
$$

SDZ012>016-024>037-041>051-057-063-072>074-180500-
SOUTHWEST AND SOUTH CENTRAL SOUTH DAKOTA

CITY           SKY/WX    TMP DP  RH WIND       PRES   REMARKS
RAPID CTY ARPT CLEAR     62  51  67 CALM      29.99R
PIERRE         PTCLDY    60  45  57 E5        29.93S
CUSTER         CLEAR     57  49  74 NE7       30.10R
ELLSWORTH AFB  MOCLDY    62  53  71 S7        29.99R
PHILIP         LGT RAIN  62  55  77 E10       29.94F
PINE RIDGE     MOCLDY    66  53  63 E13       29.96R
WINNER         FAIR      64  56  75 E9        29.97R
$$

SDZ004>011-016>023-039-040-180500-
NORTHEAST SOUTH DAKOTA

CITY           SKY/WX    TMP DP  RH WIND       PRES   REMARKS
ABERDEEN       CLEAR     50  47  89 NE8       29.99F
WATERTOWN      CLEAR     54  49  83 CALM      30.01R
SISSETON         N/A     51  49  92 W3        30.00R
$$

SDZ017-020-022-023-036>040-048>070-180500-
SOUTHEAST SOUTH DAKOTA

CITY           SKY/WX    TMP DP  RH WIND       PRES   REMARKS
SIOUX FALLS    PTCLDY    59  54  83 CALM      29.98S
HURON          CLOUDY    60  54  80 E5        29.98S
CHAMBERLAIN    MOCLDY    63  49  60 E10       29.95F
MITCHELL       LGT RAIN  63  57  81 E9        29.97S
YANKTON        CLEAR     63  55  77 E3        29.96S
$$

ABBREVIATIONS USED IN REMARKS
   TC - TEMPERATURE IN CELSIUS
  WCI - WIND CHILL INDEX
   HX - HEAT INDEX
  VSB - VISIBILITY



USA.gov is the U.S. government's official web portal to all federal, state and local government web resources and services.